Rawlins, WY

6:12 PM MDT on July 30, 2016 (GMT -0600)
Rawlins Municipal

Weather History for KRWL - April, 2013

Change the Weather History Date:

Friday, April 19, 2013

  Actual Average Record
Temperature  
Mean Temperature 31 °F 41 °F  
Max Temperature 39 °F 55 °F 75 °F (1962)
Min Temperature 22 °F 27 °F -5 °F (1966)
Degree Days  
Heating Degree Days 34 24  
Month to date heating degree days 627 502  
Since 1 July heating degree days 7220 7474  
Cooling Degree Days 0 0  
Month to date cooling degree days 0 0  
Year to date cooling degree days 0 0  
Moisture  
Dew Point 25 °F    
Average Humidity 69    
Maximum Humidity 89    
Minimum Humidity 48    
Precipitation  
Precipitation T in 0.03 in 0.62 in (2003)
Month to date precipitation 0.42 0.63  
Year to date precipitation 1.10 2.09  
Sea Level Pressure  
Sea Level Pressure 30.03 in    
Wind  
Wind Speed 22 mph (WSW)    
Max Wind Speed 35 mph    
Max Gust Speed 41 mph    
Visibility 8 miles    
Events Snow    
T = Trace of Precipitation, MM = Missing Value Source: NWS Daily Summary

Daily Weather History Graph

Daily Weather History Graph

Search for Another Location

Airport or City:

Trip Planner

Search our weather history database for the weather conditions in past years. The results will help you decide how hot, cold, wet, or windy it might be!

Date:

Astronomy

Apr. 19, 2013 Rise Set
Actual Time 6:21 AM MDT 7:54 PM MDT
Civil Twilight 5:52 AM MDT 8:23 PM MDT
Nautical Twilight 5:17 AM MDT 8:59 PM MDT
Astronomical Twilight 4:39 AM MDT 9:36 PM MDT
Moon 1:36 PM MDT (4/19) 2:44 AM MDT (4/19)
Length of Visible Light 14h 31m
Length of Day
13h 32m
Waxing Gibbous, 62% of the Moon is Illuminated
Apr 19
Waxing Gibbous
Apr 25
Full
May 2
Last Quarter
May 9
New
May 17
First Quarter

Hourly Weather History & Observations

Time (MDT) Temp. Windchill Dew Point Humidity Pressure Visibility Wind Dir Wind Speed Gust Speed Precip Events Conditions
5:53 AM 23.0 °F 8.0 °F 14.0 °F 68% 30.17 in 10.0 mi WSW 20.7 mph 25.3 mph N/A   Clear
6:53 AM 23.0 °F 6.6 °F 14.0 °F 68% 30.18 in 10.0 mi WSW 25.3 mph 32.2 mph N/A   Clear
7:53 AM 23.0 °F 8.3 °F 14.0 °F 68% 30.19 in 10.0 mi WSW 19.6 mph - N/A   Scattered Clouds
8:53 AM 27.0 °F 12.5 °F 16.0 °F 63% 30.17 in 10.0 mi WSW 23.0 mph - N/A   Clear
9:53 AM 30.9 °F 17.2 °F 19.0 °F 61% 30.13 in 10.0 mi WSW 25.3 mph 33.4 mph N/A   Clear
10:53 AM 35.1 °F 22.0 °F 19.0 °F 52% 30.09 in 10.0 mi WSW 28.8 mph 35.7 mph N/A   Clear
11:53 AM 36.0 °F 23.7 °F 19.9 °F 52% 30.08 in 10.0 mi WSW 26.5 mph 35.7 mph N/A   Scattered Clouds
12:53 PM 37.0 °F 25.4 °F 23.0 °F 57% 30.04 in 10.0 mi WSW 25.3 mph 34.5 mph N/A   Overcast
1:53 PM 39.0 °F 27.4 °F 21.9 °F 50% 30.03 in 10.0 mi WSW 28.8 mph 40.3 mph N/A   Overcast
2:53 PM 39.0 °F 28.8 °F 21.9 °F 50% 30.01 in 10.0 mi WSW 21.9 mph 36.8 mph N/A   Overcast
3:53 PM 37.0 °F 26.2 °F 25.0 °F 62% 30.03 in 10.0 mi SW 21.9 mph 33.4 mph N/A   Overcast
4:53 PM 36.0 °F 24.7 °F 28.0 °F 73% 30.03 in 10.0 mi SW 21.9 mph 35.7 mph N/A   Overcast
5:53 PM 35.1 °F 22.5 °F 28.0 °F 76% 30.04 in 10.0 mi SW 26.5 mph 33.4 mph N/A   Scattered Clouds
6:53 PM 34.0 °F 21.3 °F 28.9 °F 82% 30.02 in 10.0 mi WSW 25.3 mph 34.5 mph N/A   Overcast
7:53 PM 34.0 °F 22.1 °F 28.9 °F 82% 30.01 in 10.0 mi WSW 21.9 mph 27.6 mph N/A   Overcast
8:12 PM 33.8 °F 21.9 °F 28.4 °F 81% 29.96 in 10.0 mi WSW 21.9 mph 31.1 mph N/A   Overcast
8:53 PM 34.0 °F 22.7 °F 30.0 °F 85% 30.00 in 4.0 mi WSW 19.6 mph 27.6 mph 0.00 in Snow Light Snow
9:53 PM 33.1 °F 20.9 °F 30.0 °F 89% 30.00 in 4.0 mi WSW 21.9 mph 28.8 mph 0.00 in Snow Light Snow
10:17 PM 33.8 °F 24.3 °F 30.2 °F 87% 29.98 in 2.5 mi WSW 13.8 mph 24.2 mph 0.00 in Snow Light Snow
10:31 PM 33.8 °F 22.8 °F 30.2 °F 87% 29.97 in 2.5 mi WSW 18.4 mph 24.2 mph 0.00 in Snow Light Snow
10:38 PM 33.8 °F 23.2 °F 30.2 °F 87% 29.97 in 4.0 mi WSW 17.3 mph 24.2 mph 0.00 in Snow Light Snow
10:45 PM 33.8 °F 24.3 °F 30.2 °F 87% 29.97 in 7.0 mi WSW 13.8 mph 21.9 mph 0.00 in Snow Light Snow
10:53 PM 33.1 °F 22.6 °F 30.0 °F 89% 29.96 in 9.0 mi WSW 16.1 mph 23.0 mph 0.00 in   Overcast
11:03 PM 33.8 °F 23.2 °F 30.2 °F 87% 29.96 in 10.0 mi WSW 17.3 mph 27.6 mph N/A   Overcast
11:17 PM 33.8 °F 22.8 °F 30.2 °F 87% 29.96 in 10.0 mi WSW 18.4 mph 27.6 mph N/A   Overcast
11:48 PM 33.8 °F 23.9 °F 30.2 °F 87% 29.95 in 2.5 mi WSW 15.0 mph 23.0 mph 0.00 in Snow Light Snow
11:53 PM 33.1 °F 22.2 °F 30.9 °F 92% 29.93 in 2.5 mi WSW 17.3 mph 26.5 mph 0.00 in Snow Light Snow